Regional Weather Roundup
Issued by NWS

Home | Current Version | Previous Version | Text Only | Print | Product List | Glossary Off
Versions: 1 2 3 4 5 6 7 8 9 10 11 12 13 14 15 16 17 18 19 20 21 22 23 24 25 26 27 28 29 30 31 32 33 34 35 36 37 38 39 40 41 42 43 44 45 46 47 48 49 50

000
ASUS43 KOAX 290002
RWRNE

WEATHER ROUNDUP FOR NEBRASKA
NATIONAL WEATHER SERVICE OMAHA NE
700 PM CDT WED JUN 28 2017

NOTES: SATELLITE DATA IS BEING USED TO AUGMENT CLOUD COVER ABOVE
       12000 FEET.
       "FAIR" INDICATES FEW OR NO CLOUDS BELOW 12,000 FEET WITH NO
       SIGNIFICANT WEATHER AND/OR OBSTRUCTIONS TO VISIBILITY.

  * THESE STATIONS DO NOT REPORT WEATHER SUCH AS RAIN...SNOW OR FOG.

NEZ001>004-019>022-054>056-290100-
NEBRASKA PANHANDLE

CITY           SKY/WX    TMP DP  RH WIND       PRES   REMARKS
SCOTTSBLUFF    PTSUNNY   83  46  27 CALM      29.74S
6HR MIN TEMP:  78; 6HR MAX TEMP:  87; 6HR PCP: TRACE;

ALLIANCE       MOSUNNY   83  47  28 E15       29.76S
6HR MIN TEMP:  78; 6HR MAX TEMP:  85;

CHADRON        CLOUDY    80  48  32 SE13G23   29.72S
6HR MIN TEMP:  79; 6HR MAX TEMP:  86; 6HR PCP: TRACE;

GORDON         FAIR      78  51  38 S6        29.77R
6HR MIN TEMP:  76; 6HR MAX TEMP:  83;

SIDNEY         CLOUDY    80  49  33 E9        29.79F
6HR MIN TEMP:  68; 6HR MAX TEMP:  90; 6HR PCP:  0.03;

$$

NEZ057>060-069>072-079>082-290100-
SOUTHWEST NEBRASKA

CITY           SKY/WX    TMP DP  RH WIND       PRES   REMARKS
NORTH PLATTE   SUNNY     86  55  34 CALM      29.74R
6HR MIN TEMP:  84; 6HR MAX TEMP:  92;

IMPERIAL       PTSUNNY   87  44  22 S8        29.77R
6HR MIN TEMP:  86; 6HR MAX TEMP:  92;

LEXINGTON      SUNNY     88  53  29 S5        29.73R
MCCOOK         MOSUNNY   91  52  26 E8        29.72S
6HR MIN TEMP:  89; 6HR MAX TEMP:  93;

OGALLALA       PTSUNNY   86  44  22 N18       29.76F
$$

NEZ005>010-023>029-035>040-094-290100-
NORTH CENTRAL NEBRASKA

CITY           SKY/WX    TMP DP  RH WIND       PRES   REMARKS
VALENTINE      SUNNY     89  43  20 N12       29.73R
6HR MIN TEMP:  83; 6HR MAX TEMP:  91;

AINSWORTH      SUNNY     86  48  26 W8        29.74R
BROKEN BOW     SUNNY     86  57  37 N7        29.72S
6HR MIN TEMP:  83; 6HR MAX TEMP:  90;

O`NEILL        SUNNY     87  56  34 NW6       29.69S
ORD            SUNNY     88  54  31 N6        29.68F
6HR MIN TEMP:  83; 6HR MAX TEMP:  90;

THEDFORD       SUNNY     87  49  26 N3        29.76R
$$

NEZ041-046>049-061>064-073>077-083>087-290100-
SOUTH CENTRAL NEBRASKA

CITY           SKY/WX    TMP DP  RH WIND       PRES   REMARKS
GRAND ISLAND   FAIR      87  61  41 SW6       29.70F
6HR MIN TEMP:  84; 6HR MAX TEMP:  89;

AURORA         FAIR      86  64  48 CALM      29.70S
HASTINGS       FAIR      87  58  37 N3        29.73S
6HR MIN TEMP:  85; 6HR MAX TEMP:  90;

HEBRON         FAIR      91  61  36 N8        29.67S HX  91
HOLDREGE       FAIR      85  53  32 SE5       29.72F
KEARNEY *      FAIR      86  63  45 SE8       29.72S
YORK           FAIR      84  63  48 CALM      29.69F
$$

NEZ011>018-030>034-042>045-290100-
NORTHEAST NEBRASKA

CITY           SKY/WX    TMP DP  RH WIND       PRES   REMARKS
NORFOLK        FAIR      87  57  35 W9        29.64S
6HR MIN TEMP:  83; 6HR MAX TEMP:  89;

ALBION         FAIR      88  57  35 N7        29.68S
BLAIR          FAIR      87  63  43 W7        29.66S
FREMONT        FAIR      87  62  43 W7        29.66R
TEKAMAH        FAIR      89  61  38 W9        29.63R
6HR MIN TEMP:  86; 6HR MAX TEMP:  92;

WAYNE          FAIR      86  63  45 NW7       29.65S
$$

NEZ050>053-065>068-078-088>093-290100-
SOUTHEAST NEBRASKA

CITY           SKY/WX    TMP DP  RH WIND       PRES   REMARKS
LINCOLN        FAIR      89  66  46 NW12      29.66S HX  91
6HR MIN TEMP:  85; 6HR MAX TEMP:  91;

OMAHA EPPLEY   FAIR      90  64  42 W13       29.63S HX  91
6HR MIN TEMP:  84; 6HR MAX TEMP:  93;

BEATRICE       PTSUNNY   89  75  63 CALM      29.66R HX  99
FALLS CITY     FAIR      86  70  58 SW16G24   29.64S HX  90
6HR MIN TEMP:  86; 6HR MAX TEMP:  91; 6HR PCP: TRACE;

NEBRASKA CITY  FAIR      85  78  79 W5        29.64F HX  97
PLATTSMOUTH    FAIR      87  66  49 W8        29.65S
$$

NEZ044-045-051>053-067-290100-
OMAHA AREA

CITY           SKY/WX    TMP DP  RH WIND       PRES   REMARKS
OMAHA EPPLEY   FAIR      90  64  42 W13       29.63S HX  91
6HR MIN TEMP:  84; 6HR MAX TEMP:  93;

BLAIR          FAIR      87  63  43 W7        29.66S
FREMONT        FAIR      87  62  43 W7        29.66R
MILLARD        FAIR      89  66  45 NW13      29.65R HX  92
OFFUTT AFB     FAIR      89  66  46 W8        29.64R HX  91
PLATTSMOUTH    FAIR      87  66  49 W8        29.65S
WAHOO          FAIR      87  64  45 W8        29.66S
$$



USA.gov is the U.S. government's official web portal to all federal, state and local government web resources and services.